Time,TemperatureF,DewpointF,PressureIn,WindDirection,WindDirectionDegrees,WindSpeedMPH,WindSpeedGustMPH,Humidity,HourlyPrecipIn,Conditions,Clouds,dailyrainin,SolarRadiationWatts/m^2,SoftwareType,DateUTC
2013-06-07 00:22:00,54.0,31.0,-100.00,SE,131,3.0,4.0,41,0.00,,,-99.99,12.000000,,2013-06-07 08:22:00,
2013-06-07 00:32:00,54.0,31.0,-100.00,SE,131,3.0,4.0,41,0.00,,,-99.99,12.000000,,2013-06-07 08:32:00,
2013-06-07 00:42:00,54.0,31.0,-100.00,SE,131,3.0,4.0,41,0.00,,,-99.99,12.000000,,2013-06-07 08:42:00,
2013-06-07 00:52:00,54.0,31.0,-100.00,SE,131,3.0,4.0,41,0.00,,,-99.99,12.000000,,2013-06-07 08:52:00,
2013-06-07 01:22:00,52.0,31.0,-100.00,SSE,159,2.0,4.0,44,0.00,,,0.00,0.000000,,2013-06-07 09:22:00,
2013-06-07 01:32:00,52.0,31.0,-100.00,SSE,159,2.0,4.0,44,0.00,,,0.00,0.000000,,2013-06-07 09:32:00,
2013-06-07 01:43:00,52.0,31.0,-100.00,SSE,159,2.0,4.0,44,0.00,,,0.00,0.000000,,2013-06-07 09:43:00,
2013-06-07 01:53:00,52.0,31.0,-100.00,SSE,159,2.0,4.0,44,0.00,,,0.00,0.000000,,2013-06-07 09:53:00,
2013-06-07 02:23:00,52.0,30.0,-100.00,South,182,3.0,4.0,43,0.00,,,0.00,0.000000,,2013-06-07 10:23:00,
2013-06-07 02:32:00,52.0,30.0,-100.00,South,182,3.0,4.0,43,0.00,,,0.00,0.000000,,2013-06-07 10:32:00,
2013-06-07 02:42:00,52.0,30.0,-100.00,South,182,3.0,4.0,43,0.00,,,0.00,0.000000,,2013-06-07 10:42:00,
2013-06-07 02:52:00,52.0,30.0,-100.00,South,182,3.0,4.0,43,0.00,,,0.00,0.000000,,2013-06-07 10:52:00,
2013-06-07 03:22:00,51.0,31.0,-100.00,South,189,3.0,5.0,46,0.00,,,0.00,0.000000,,2013-06-07 11:22:00,
2013-06-07 03:32:00,51.0,31.0,-100.00,South,189,3.0,5.0,46,0.00,,,0.00,0.000000,,2013-06-07 11:32:00,
2013-06-07 03:42:00,51.0,31.0,-100.00,South,189,3.0,5.0,46,0.00,,,0.00,0.000000,,2013-06-07 11:42:00,
2013-06-07 03:52:00,51.0,31.0,-100.00,South,189,3.0,5.0,46,0.00,,,0.00,0.000000,,2013-06-07 11:52:00,
2013-06-07 04:22:00,50.0,31.0,-100.00,SSW,192,7.0,13.0,47,0.00,,,0.00,0.000000,,2013-06-07 12:22:00,
2013-06-07 04:32:00,50.0,31.0,-100.00,SSW,192,7.0,13.0,47,0.00,,,0.00,0.000000,,2013-06-07 12:32:00,
2013-06-07 04:42:00,50.0,31.0,-100.00,SSW,192,7.0,13.0,47,0.00,,,0.00,0.000000,,2013-06-07 12:42:00,
2013-06-07 04:52:00,50.0,31.0,-100.00,SSW,192,7.0,13.0,47,0.00,,,0.00,0.000000,,2013-06-07 12:52:00,
2013-06-07 06:22:00,46.0,33.0,-100.00,South,175,7.0,11.0,60,-99.99,,,0.00,20.000000,,2013-06-07 14:22:00,
2013-06-07 06:32:00,46.0,33.0,-100.00,South,175,7.0,11.0,60,-99.99,,,0.00,20.000000,,2013-06-07 14:32:00,
2013-06-07 06:42:00,46.0,33.0,-100.00,South,175,7.0,11.0,60,-99.99,,,0.00,20.000000,,2013-06-07 14:42:00,
2013-06-07 06:52:00,46.0,33.0,-100.00,South,175,7.0,11.0,60,-99.99,,,0.00,20.000000,,2013-06-07 14:52:00,
2013-06-07 07:22:00,47.0,34.0,-100.00,SSW,196,5.0,11.0,60,0.00,,,0.00,77.000000,,2013-06-07 15:22:00,
2013-06-07 07:33:00,47.0,34.0,-100.00,SSW,196,5.0,11.0,60,0.00,,,0.00,77.000000,,2013-06-07 15:33:00,
2013-06-07 07:43:00,47.0,34.0,-100.00,SSW,196,5.0,11.0,60,0.00,,,0.00,77.000000,,2013-06-07 15:43:00,
2013-06-07 07:53:00,47.0,34.0,-100.00,SSW,196,5.0,11.0,60,0.00,,,0.00,77.000000,,2013-06-07 15:53:00,
2013-06-07 08:22:00,50.0,34.0,-100.00,SSW,199,5.0,12.0,54,0.00,,,0.00,246.000000,,2013-06-07 16:22:00,
2013-06-07 08:33:00,50.0,34.0,-100.00,SSW,199,5.0,12.0,54,0.00,,,0.00,246.000000,,2013-06-07 16:33:00,
2013-06-07 08:43:00,50.0,34.0,-100.00,SSW,199,5.0,12.0,54,0.00,,,0.00,246.000000,,2013-06-07 16:43:00,
2013-06-07 08:52:00,50.0,34.0,-100.00,SSW,199,5.0,12.0,54,0.00,,,0.00,246.000000,,2013-06-07 16:52:00,
2013-06-07 09:22:00,54.0,35.0,-100.00,SSW,210,5.0,9.0,48,0.00,,,0.00,388.000000,,2013-06-07 17:22:00,
2013-06-07 09:32:00,54.0,35.0,-100.00,SSW,210,5.0,9.0,48,0.00,,,0.00,388.000000,,2013-06-07 17:32:00,
2013-06-07 09:42:00,54.0,35.0,-100.00,SSW,210,5.0,9.0,48,0.00,,,0.00,388.000000,,2013-06-07 17:42:00,
2013-06-07 09:52:00,54.0,35.0,-100.00,SSW,210,5.0,9.0,48,0.00,,,0.00,388.000000,,2013-06-07 17:52:00,
2013-06-07 10:23:00,55.0,34.0,-100.00,SW,217,6.0,9.0,45,0.00,,,0.00,543.000000,,2013-06-07 18:23:00,
2013-06-07 10:35:00,55.0,34.0,-100.00,SW,217,6.0,9.0,45,0.00,,,0.00,543.000000,,2013-06-07 18:35:00,
2013-06-07 10:43:00,55.0,34.0,-100.00,SW,217,6.0,9.0,45,0.00,,,0.00,543.000000,,2013-06-07 18:43:00,
2013-06-07 11:27:00,57.0,36.0,-100.00,West,273,3.0,7.0,45,0.00,,,0.00,580.000000,,2013-06-07 19:27:00,
2013-06-07 11:34:00,57.0,36.0,-100.00,West,273,3.0,7.0,45,0.00,,,0.00,580.000000,,2013-06-07 19:34:00,
2013-06-07 11:44:00,57.0,36.0,-100.00,West,273,3.0,7.0,45,0.00,,,0.00,580.000000,,2013-06-07 19:44:00,
2013-06-07 11:54:00,57.0,36.0,-100.00,West,273,3.0,7.0,45,0.00,,,0.00,580.000000,,2013-06-07 19:54:00,
2013-06-07 12:36:00,61.0,37.0,-100.00,NNW,328,4.0,7.0,41,0.00,,,-99.99,711.000000,,2013-06-07 20:36:00,
2013-06-07 12:44:00,61.0,37.0,-100.00,NNW,328,4.0,7.0,41,0.00,,,-99.99,711.000000,,2013-06-07 20:44:00,
2013-06-07 12:53:00,61.0,37.0,-100.00,NNW,328,4.0,7.0,41,0.00,,,-99.99,711.000000,,2013-06-07 20:53:00,
2013-06-07 13:25:00,64.0,38.0,-100.00,NNW,345,4.0,8.0,38,0.00,,,0.00,763.000000,,2013-06-07 21:25:00,
2013-06-07 13:37:00,64.0,38.0,-100.00,NNW,345,4.0,8.0,38,0.00,,,0.00,763.000000,,2013-06-07 21:37:00,
2013-06-07 13:44:00,64.0,38.0,-100.00,NNW,345,4.0,8.0,38,0.00,,,0.00,763.000000,,2013-06-07 21:44:00,
2013-06-07 14:25:00,67.0,39.0,-100.00,NW,304,5.0,8.0,36,0.00,,,0.00,834.000000,,2013-06-07 22:25:00,
2013-06-07 14:34:00,67.0,39.0,-100.00,NW,304,5.0,8.0,36,0.00,,,0.00,834.000000,,2013-06-07 22:34:00,
2013-06-07 14:44:00,67.0,39.0,-100.00,NW,304,5.0,8.0,36,0.00,,,0.00,834.000000,,2013-06-07 22:44:00,
2013-06-07 15:26:00,69.0,39.0,-100.00,NNW,332,4.0,9.0,34,0.00,,,0.00,834.000000,,2013-06-07 23:26:00,
2013-06-07 15:35:00,69.0,39.0,-100.00,NNW,332,4.0,9.0,34,0.00,,,0.00,834.000000,,2013-06-07 23:35:00,
2013-06-07 15:46:00,69.0,39.0,-100.00,NNW,332,4.0,9.0,34,0.00,,,0.00,834.000000,,2013-06-07 23:46:00,
2013-06-07 15:54:00,69.0,39.0,-100.00,NNW,332,4.0,9.0,34,0.00,,,0.00,834.000000,,2013-06-07 23:54:00,
2013-06-07 16:26:00,73.0,36.0,-100.00,West,259,6.0,12.0,26,0.00,,,0.00,779.000000,,2013-06-08 00:26:00,
2013-06-07 16:34:00,73.0,36.0,-100.00,West,259,6.0,12.0,26,0.00,,,0.00,779.000000,,2013-06-08 00:34:00,
2013-06-07 16:44:00,73.0,36.0,-100.00,West,259,6.0,12.0,26,0.00,,,0.00,779.000000,,2013-06-08 00:44:00,
2013-06-07 16:53:00,73.0,36.0,-100.00,West,259,6.0,12.0,26,0.00,,,0.00,779.000000,,2013-06-08 00:53:00,
2013-06-07 17:26:00,72.0,34.0,-100.00,SW,228,5.0,12.0,25,0.00,,,0.00,725.000000,,2013-06-08 01:26:00,
2013-06-07 17:37:00,72.0,34.0,-100.00,SW,228,5.0,12.0,25,0.00,,,0.00,725.000000,,2013-06-08 01:37:00,
2013-06-07 17:43:00,72.0,34.0,-100.00,SW,228,5.0,12.0,25,0.00,,,0.00,725.000000,,2013-06-08 01:43:00,
2013-06-07 17:54:00,72.0,34.0,-100.00,SW,228,5.0,12.0,25,0.00,,,0.00,725.000000,,2013-06-08 01:54:00,
2013-06-07 18:33:00,66.0,32.0,-100.00,SSW,194,7.0,14.0,28,0.00,,,0.00,506.000000,,2013-06-08 02:33:00,
2013-06-07 18:45:00,66.0,32.0,-100.00,SSW,194,7.0,14.0,28,0.00,,,0.00,506.000000,,2013-06-08 02:45:00,
2013-06-07 18:54:00,66.0,32.0,-100.00,SSW,194,7.0,14.0,28,0.00,,,0.00,506.000000,,2013-06-08 02:54:00,
2013-06-07 19:25:00,65.0,34.0,-100.00,SSW,202,7.0,15.0,32,0.00,,,0.00,375.000000,,2013-06-08 03:25:00,
2013-06-07 19:35:00,65.0,34.0,-100.00,SSW,202,7.0,15.0,32,0.00,,,0.00,375.000000,,2013-06-08 03:35:00,
2013-06-07 19:54:00,65.0,34.0,-100.00,SSW,202,7.0,15.0,32,0.00,,,0.00,375.000000,,2013-06-08 03:54:00,
2013-06-07 20:23:00,59.0,35.0,-100.00,North,359,5.0,12.0,40,0.00,,,0.00,107.000000,,2013-06-08 04:23:00,
2013-06-07 20:33:00,59.0,35.0,-100.00,North,359,5.0,12.0,40,0.00,,,0.00,107.000000,,2013-06-08 04:33:00,
2013-06-07 20:42:00,59.0,35.0,-100.00,North,359,5.0,12.0,40,0.00,,,0.00,107.000000,,2013-06-08 04:42:00,
2013-06-07 20:53:00,59.0,35.0,-100.00,North,359,5.0,12.0,40,0.00,,,0.00,107.000000,,2013-06-08 04:53:00,
2013-06-07 21:22:00,57.0,40.0,-100.00,ENE,62,3.0,6.0,52,0.00,,,0.00,78.000000,,2013-06-08 05:22:00,
2013-06-07 21:32:00,57.0,40.0,-100.00,ENE,62,3.0,6.0,52,0.00,,,0.00,78.000000,,2013-06-08 05:32:00,
2013-06-07 21:42:00,57.0,40.0,-100.00,ENE,62,3.0,6.0,52,0.00,,,0.00,78.000000,,2013-06-08 05:42:00,
2013-06-07 21:52:00,57.0,40.0,-100.00,ENE,62,3.0,6.0,52,0.00,,,0.00,78.000000,,2013-06-08 05:52:00,
2013-06-07 22:22:00,58.0,37.0,-100.00,NW,318,3.0,8.0,45,0.00,,,0.00,84.000000,,2013-06-08 06:22:00,
2013-06-07 22:32:00,58.0,37.0,-100.00,NW,318,3.0,8.0,45,0.00,,,0.00,84.000000,,2013-06-08 06:32:00,
2013-06-07 22:42:00,58.0,37.0,-100.00,NW,318,3.0,8.0,45,0.00,,,0.00,84.000000,,2013-06-08 06:42:00,
2013-06-07 22:52:00,58.0,37.0,-100.00,NW,318,3.0,8.0,45,0.00,,,0.00,84.000000,,2013-06-08 06:52:00,
2013-06-07 23:22:00,53.0,40.0,-100.00,NE,46,3.0,5.0,61,0.00,,,0.00,42.000000,,2013-06-08 07:22:00,
2013-06-07 23:32:00,53.0,40.0,-100.00,NE,46,3.0,5.0,61,0.00,,,0.00,42.000000,,2013-06-08 07:32:00,
2013-06-07 23:42:00,53.0,40.0,-100.00,NE,46,3.0,5.0,61,0.00,,,0.00,42.000000,,2013-06-08 07:42:00,
2013-06-07 23:52:00,53.0,40.0,-100.00,NE,46,3.0,5.0,61,0.00,,,0.00,42.000000,,2013-06-08 07:52:00,